EW7239 Weather Reports


time (UTC)temp
F
wind
direction
speed
knots
gust
knots
rain 1hr
in
rain 24hr
in
rain mn
in
humidity
%
barometer
mb
20260904164833 72 217 1.7 4.3 0.00 0.00 0.00 71 1014.4
20260904164333 71 217 1.7 3.5 0.00 0.00 0.00 72 1014.3
20260904163834 71 217 0.9 2.6 0.00 0.00 0.00 74 1014.3
20260904163334 70 217 1.7 4.3 0.00 0.00 0.00 76 1014.2
20260904162833 69 217 2.6 4.3 0.00 0.00 0.00 75 1014.2
20260904162334 69 217 2.6 5.2 0.00 0.00 0.00 77 1014.2
20260904161833 69 217 2.6 5.2 0.00 0.00 0.00 77 1014.1
20260904161333 68 219 2.6 3.5 0.00 0.00 0.00 79 1014.1
20260904160833 68 219 2.6 3.5 0.00 0.00 0.00 80 1014.1
20260904160334 68 219 1.7 3.5 0.00 0.00 0.00 80 1014.1
20260904155835 67 219 1.7 4.3 0.00 0.00 0.00 81 1014.0
20260904155334 67 219 1.7 4.3 0.00 0.00 0.00 82 1014.1
20260904154834 67 219 1.7 4.3 0.00 0.00 0.00 82 1014.2
20260904154334 67 219 2.6 4.3 0.00 0.00 0.00 82 1014.1
20260904153834 67 219 1.7 4.3 0.00 0.00 0.00 83 1014.2
20260904153333 67 219 0.9 3.5 0.00 0.00 0.00 84 1014.2
20260904152832 66 219 0.9 3.5 0.00 0.00 0.00 84 1014.0
20260904152331 66 219 1.7 3.5 0.00 0.00 0.00 84 1014.1
20260904151831 65 219 1.7 4.3 0.00 0.00 0.00 84 1014.1
20260904151332 65 219 0.9 4.3 0.00 0.00 0.00 84 1014.1
20260904150831 65 219 0.9 3.5 0.00 0.00 0.00 84 1014.2
20260904150333 65 219 0.9 2.6 0.00 0.00 0.00 84 1014.1
20260904145832 65 219 0.9 3.5 0.00 0.00 0.00 84 1014.0
20260904145333 65 219 0.9 3.5 0.00 0.00 0.00 85 1014.0
20260904144832 65 219 0.0 2.6 0.00 0.00 0.00 85 1014.0
20260904144332 64 219 0.9 2.6 0.00 0.00 0.00 84 1014.0
20260904143831 64 219 0.9 2.6 0.00 0.00 0.00 85 1014.0
20260904143332 64 219 0.0 2.6 0.00 0.00 0.00 85 1014.0
20260904143105 64 219 0.0 0.0 0.00 0.00 0.00 85 1014.1
20260904142332 64 219 0.0 0.0 0.00 0.00 0.00 85 1014.0
20260904141831 63 219 0.0 0.0 0.00 0.00 0.00 85 1013.9
20260904141332 63 219 0.0 0.0 0.00 0.00 0.00 85 1013.8
20260904140833 63 219 0.0 0.0 0.00 0.00 0.00 85 1013.7
20260904140604 63 219 0.0 0.0 0.00 0.00 0.00 85 1013.7
20260904135832 63 219 0.0 0.0 0.00 0.00 0.00 85 1013.7
20260904135332 63 219 0.0 0.0 0.00 0.00 0.00 85 1013.6
20260904134832 62 219 0.0 0.0 0.00 0.00 0.00 85 1013.7
20260904134331 62 219 0.0 0.0 0.00 0.00 0.00 85 1013.6
20260904133832 62 219 0.0 0.0 0.00 0.00 0.00 85 1013.6
20260904133332 62 219 0.0 0.0 0.00 0.00 0.00 85 1013.5
20260904132831 62 219 0.0 0.0 0.00 0.00 0.00 84 1013.5
20260904132332 62 219 0.0 0.0 0.00 0.00 0.00 84 1013.6
20260904132103 62 219 0.0 0.0 0.00 0.00 0.00 84 1013.6
20260904131603 63 219 0.0 0.0 0.00 0.00 0.00 84 1013.6
20260904130831 63 219 0.0 0.0 0.00 0.00 0.00 84 1013.6
20260904130333 63 219 0.0 0.0 0.00 0.00 0.00 84 1013.6
20260904125832 63 219 0.0 0.0 0.00 0.00 0.00 84 1013.6
20260904125333 63 219 0.0 1.7 0.00 0.00 0.00 84 1013.6
20260904124833 63 219 0.0 1.7 0.00 0.00 0.00 83 1013.5
20260904124332 63 219 0.9 1.7 0.00 0.00 0.00 83 1013.5
20260904123332 63 219 0.9 3.5 0.00 0.00 0.00 83 1013.4
20260904122833 64 219 0.9 3.5 0.00 0.00 0.00 83 1013.3
20260904122332 64 219 0.9 3.5 0.00 0.00 0.00 83 1013.2
20260904121833 64 219 0.9 3.5 0.00 0.00 0.00 83 1013.1
20260904121606 64 219 0.9 3.5 0.00 0.00 0.00 83 1013.1
20260904120834 64 219 0.0 2.6 0.00 0.00 0.00 83 1013.1
20260904120334 64 219 0.0 1.7 0.00 0.00 0.00 82 1013.1
20260904115331 64 219 0.9 3.5 0.00 0.00 0.00 83 1013.0
20260904114833 64 219 0.9 3.5 0.00 0.00 0.00 83 1013.0
20260904114333 64 219 0.9 2.6 0.00 0.00 0.00 83 1013.1
20260904113832 64 219 0.0 3.5 0.00 0.00 0.00 83 1013.1
20260904113334 64 219 0.0 3.5 0.00 0.00 0.00 83 1013.1
20260904112833 64 219 0.0 2.6 0.00 0.00 0.00 83 1013.0
20260904112605 64 219 0.0 2.6 0.00 0.00 0.00 83 1013.0
20260904111829 64 219 0.0 1.7 0.00 0.00 0.00 83 1013.0
20260904111332 64 219 0.0 0.0 0.00 0.00 0.00 83 1013.0
20260904110829 64 219 0.0 0.0 0.00 0.00 0.00 83 1013.1
20260904110329 64 219 0.0 0.9 0.00 0.00 0.00 83 1013.1
20260904105824 64 219 0.0 1.7 0.00 0.00 0.00 83 1013.0
20260904105325 64 219 0.0 1.7 0.00 0.00 0.00 83 1013.1
20260904104555 64 219 0.9 3.5 0.00 0.00 0.00 83 1013.1
20260904103820 64 219 0.9 3.5 0.00 0.00 0.00 83 1013.1
20260904103320 64 219 0.9 3.5 0.00 0.00 0.00 83 1013.1
20260904102820 63 219 0.0 3.5 0.00 0.00 0.00 83 1013.1
20260904102319 63 219 0.0 0.0 0.00 0.00 0.00 82 1013.1
20260904101820 63 219 0.0 0.0 0.00 0.00 0.00 83 1013.1
20260904101319 64 219 0.0 0.0 0.00 0.00 0.00 83 1013.2
20260904100820 63 219 0.0 0.0 0.00 0.00 0.00 82 1013.1
20260904100317 64 219 0.0 0.0 0.00 0.00 0.00 82 1013.1
20260904095817 64 219 0.0 0.0 0.00 0.00 0.00 82 1013.1
20260904095317 64 219 0.0 0.0 0.00 0.00 0.00 82 1013.1
20260904094816 64 219 0.0 0.0 0.00 0.00 0.00 82 1013.1
20260904094313 64 219 0.0 0.0 0.00 0.00 0.00 82 1013.1
20260904093814 64 219 0.0 0.0 0.00 0.00 0.00 82 1013.0
20260904093311 64 219 0.0 0.0 0.00 0.00 0.00 82 1013.0
20260904092812 64 219 0.0 0.0 0.00 0.00 0.00 82 1013.1
20260904091810 64 219 0.0 1.7 0.00 0.00 0.00 81 1013.0
20260904091308 65 219 0.0 1.7 0.00 0.00 0.00 81 1013.0
20260904090806 65 219 0.0 0.9 0.00 0.00 0.00 81 1013.0
20260904090305 65 219 0.0 1.7 0.00 0.00 0.00 81 1013.0
20260904085806 65 219 0.9 1.7 0.00 0.00 0.00 80 1013.0
20260904085305 65 219 0.9 1.7 0.00 0.00 0.00 80 1013.0
20260904084803 65 219 0.0 1.7 0.00 0.00 0.00 80 1013.0
20260904084301 65 219 0.9 2.6 0.00 0.00 0.00 80 1013.1
20260904083801 65 219 0.9 3.5 0.00 0.00 0.00 80 1013.1
20260904083303 65 219 0.9 3.5 0.00 0.00 0.00 79 1013.2
20260904082803 65 219 1.7 3.5 0.00 0.00 0.00 79 1013.2
20260904082305 65 219 0.9 3.5 0.00 0.00 0.00 79 1013.2
20260904081802 65 219 0.9 2.6 0.00 0.00 0.00 78 1013.2
20260904081300 65 219 0.9 2.6 0.00 0.00 0.00 78 1013.1
20260904080801 65 219 0.9 2.6 0.00 0.00 0.00 78 1013.2
20260904080259 65 219 0.0 2.6 0.00 0.00 0.00 78 1013.1
20260904075759 65 219 0.0 1.7 0.00 0.00 0.00 77 1013.1
20260904075256 65 219 0.0 1.7 0.00 0.00 0.00 77 1013.2
20260904074753 65 219 0.0 1.7 0.00 0.00 0.00 77 1013.2
20260904074256 65 219 0.0 1.7 0.00 0.00 0.00 77 1013.2
20260904073754 65 219 0.9 2.6 0.00 0.00 0.00 76 1013.2
20260904073251 66 219 0.9 2.6 0.00 0.00 0.00 77 1013.2
20260904072752 66 219 0.9 2.6 0.00 0.00 0.00 76 1013.2
20260904071751 66 219 0.0 1.7 0.00 0.00 0.00 75 1013.1
20260904071244 66 219 0.9 2.6 0.00 0.00 0.00 75 1013.1
20260904070743 66 219 0.9 2.6 0.00 0.00 0.00 75 1013.0
20260904070247 66 219 0.9 3.5 0.00 0.00 0.00 75 1013.1
20260904065741 67 219 0.9 3.5 0.00 0.00 0.00 75 1013.1
20260904065241 67 219 1.7 5.2 0.00 0.00 0.00 75 1013.2
20260904065012 67 219 1.7 5.2 0.00 0.00 0.00 75 1013.2
20260904064241 67 219 2.6 4.3 0.00 0.00 0.00 75 1013.1
20260904063741 67 219 2.6 6.1 0.00 0.00 0.00 75 1013.1
20260904063238 67 219 2.6 6.1 0.00 0.00 0.00 75 1013.1
20260904063010 67 219 2.6 6.1 0.00 0.00 0.00 75 1013.1
20260904062232 67 219 2.6 6.1 0.00 0.00 0.00 75 1013.1
20260904061232 67 219 2.6 5.2 0.00 0.00 0.00 76 1013.1
20260904060733 67 219 2.6 5.2 0.00 0.00 0.00 76 1013.1
20260904060233 67 219 2.6 5.2 0.00 0.00 0.00 76 1013.0
20260904055224 68 219 3.5 5.2 0.00 0.00 0.00 76 1013.1
20260904054724 68 219 2.6 5.2 0.00 0.00 0.00 75 1013.1
20260904054218 68 219 2.6 4.3 0.00 0.00 0.00 75 1013.0
20260904053718 68 219 2.6 5.2 0.00 0.00 0.00 75 1013.1
20260904052717 68 219 2.6 6.1 0.00 0.00 0.00 75 1013.1
20260904052217 69 219 2.6 6.1 0.00 0.00 0.00 74 1013.1
20260904051713 69 219 2.6 6.1 0.00 0.00 0.00 74 1013.1
20260904051212 69 219 3.5 6.1 0.00 0.00 0.00 73 1013.1
20260904050710 69 219 3.5 6.1 0.00 0.00 0.00 73 1013.1
20260904050209 69 219 3.5 7.0 0.00 0.00 0.00 72 1013.1
20260904045709 69 219 3.5 7.0 0.00 0.00 0.00 71 1013.1
20260904045206 69 219 2.6 5.2 0.00 0.00 0.00 71 1013.0
20260904044205 70 219 3.5 6.1 0.00 0.00 0.00 69 1012.9
20260904043707 70 219 4.3 7.8 0.00 0.00 0.00 69 1012.8
20260904043204 70 219 4.3 8.7 0.00 0.00 0.00 68 1012.8
20260904042705 70 218 4.3 8.7 0.00 0.00 0.00 67 1012.7
20260904042202 71 215 3.5 6.1 0.00 0.00 0.00 65 1012.7
20260904041703 71 215 4.3 8.7 0.00 0.00 0.00 65 1012.7
20260904041203 71 215 5.2 8.7 0.00 0.00 0.00 64 1012.6
20260904040701 71 209 5.2 7.8 0.00 0.00 0.00 64 1012.6
20260904040433 71 221 5.2 8.7 0.00 0.00 0.00 64 1012.3
20260904035701 71 223 5.2 9.6 0.00 0.00 0.00 64 1012.3
20260904035158 71 222 5.2 9.6 0.00 0.00 0.00 65 1012.3
20260904034659 71 227 5.2 8.7 0.00 0.00 0.00 66 1012.2
20260904034156 71 229 5.2 8.7 0.00 0.00 0.00 66 1012.1
20260904033655 71 223 4.3 8.7 0.00 0.00 0.00 66 1012.0
20260904033154 72 234 3.5 8.7 0.00 0.00 0.00 66 1012.0
20260904032925 72 236 4.3 8.7 0.00 0.00 0.00 66 1011.9
20260904032153 72 230 4.3 7.8 0.00 0.00 0.00 66 1011.9
20260904031653 72 227 5.2 11.3 0.00 0.00 0.00 66 1011.8
20260904031153 72 235 5.2 11.3 0.00 0.00 0.00 65 1011.8
20260904030655 72 230 5.2 11.3 0.00 0.00 0.00 65 1011.6
20260904030152 72 226 5.2 11.3 0.00 0.00 0.00 65 1011.6
20260904025653 73 225 5.2 10.4 0.00 0.00 0.00 64 1011.6
20260904025152 73 220 5.2 10.4 0.00 0.00 0.00 64 1011.6
20260904024653 73 235 5.2 10.4 0.00 0.00 0.00 64 1011.6
20260904024153 73 229 4.3 8.7 0.00 0.00 0.00 63 1011.6
20260904023652 74 229 5.2 9.6 0.00 0.00 0.00 62 1011.5
20260904023422 74 237 5.2 9.6 0.00 0.00 0.00 62 1011.5
20260904022652 74 244 4.3 8.7 0.00 0.00 0.00 62 1011.5
20260904022150 74 236 5.2 10.4 0.00 0.00 0.00 61 1011.5
20260904021919 74 232 5.2 10.4 0.00 0.00 0.00 60 1011.5
20260904021148 75 223 5.2 10.4 0.00 0.00 0.00 60 1011.5
20260904020645 75 242 6.1 10.4 0.00 0.00 0.00 59 1011.5
20260904020144 75 225 7.0 10.4 0.00 0.00 0.00 59 1011.5
20260904015643 75 226 6.1 10.4 0.00 0.00 0.00 58 1011.5
20260904015145 76 224 6.1 11.3 0.00 0.00 0.00 58 1011.5
20260904014644 76 224 7.0 12.2 0.00 0.00 0.00 57 1011.5
20260904014416 77 217 7.0 14.8 0.00 0.00 0.00 56 1011.5
20260904013910 77 214 7.0 14.8 0.00 0.00 0.00 55 1011.5
20260904013139 77 219 6.1 12.2 0.00 0.00 0.00 54 1011.5
20260904012910 78 216 7.0 12.2 0.00 0.00 0.00 54 1011.5
20260904012135 78 214 7.0 13.0 0.00 0.00 0.00 53 1011.5
20260904011635 78 226 7.0 13.0 0.00 0.00 0.00 53 1011.5
20260904011136 79 226 7.0 13.0 0.00 0.00 0.00 52 1011.4
20260904010902 79 244 6.1 11.3 0.00 0.00 0.00 51 1011.4
20260904010132 79 217 7.0 13.0 0.00 0.00 0.00 51 1011.3
20260904005633 79 228 7.8 13.9 0.00 0.00 0.00 51 1011.3
20260904005126 80 216 7.8 13.9 0.00 0.00 0.00 49 1011.3
20260904004625 80 219 7.0 13.9 0.00 0.00 0.00 49 1011.3
20260904004126 80 225 7.0 13.9 0.00 0.00 0.00 49 1011.3
20260904003857 80 223 7.8 13.9 0.00 0.00 0.00 49 1011.4
20260904003126 81 209 7.8 13.9 0.00 0.00 0.00 49 1011.3
20260904002625 80 252 8.7 13.9 0.00 0.00 0.00 50 1011.4
20260904002126 81 217 8.7 14.8 0.00 0.00 0.00 50 1011.3
20260904001858 81 229 7.8 14.8 0.00 0.00 0.00 50 1011.4
20260904001123 82 221 7.8 13.0 0.00 0.00 0.00 50 1011.4
20260904000636 82 225 7.8 13.9 0.00 0.00 0.00 49 1011.4
20260904000122 82 226 7.8 13.9 0.00 0.00 0.00 50 1011.4
20260903235852 83 221 7.0 13.0 0.00 0.00 0.00 49 1011.4
20260903235119 83 219 7.0 13.0 0.00 0.00 0.00 49 1011.5
20260903234631 83 224 7.8 13.9 0.00 0.00 0.00 48 1011.5
20260903234117 83 223 7.8 13.9 0.00 0.00 0.00 47 1011.5
20260903233615 83 216 7.8 14.8 0.00 0.00 0.00 48 1011.6
20260903233116 83 225 7.8 14.8 0.00 0.00 0.00 48 1011.6
20260903232615 83 221 7.8 13.0 0.00 0.00 0.00 46 1011.6
20260903232116 84 221 6.1 13.0 0.00 0.00 0.00 46 1011.6
20260903231616 84 219 7.0 13.9 0.00 0.00 0.00 46 1011.6
20260903230610 84 217 7.8 14.8 0.00 0.00 0.00 44 1011.7
20260903230114 85 211 6.1 13.0 0.00 0.00 0.00 43 1011.7
20260903225842 85 230 7.0 13.0 0.00 0.00 0.00 42 1011.6
20260903225109 85 234 7.0 13.0 0.00 0.00 0.00 42 1011.6
20260903224610 86 233 6.1 13.0 0.00 0.00 0.00 40 1011.7
20260903224107 86 225 6.1 11.3 0.00 0.00 0.00 39 1011.7
20260903223834 86 225 6.1 10.4 0.00 0.00 0.00 39 1011.8
20260903223105 86 223 6.1 13.9 0.00 0.00 0.00 38 1011.9
20260903222834 86 209 6.1 13.9 0.00 0.00 0.00 40 1011.9
20260903222104 86 229 5.2 11.3 0.00 0.00 0.00 39 1011.9
20260903221603 86 213 6.1 11.3 0.00 0.00 0.00 38 1012.0
20260903221103 86 226 6.1 11.3 0.00 0.00 0.00 38 1012.1
20260903220833 86 209 6.1 10.4 0.00 0.00 0.00 38 1012.2
20260903220105 87 225 5.2 10.4 0.00 0.00 0.00 38 1012.2
20260903215834 87 232 4.3 10.4 0.00 0.00 0.00 37 1012.2
20260903215101 87 207 5.2 10.4 0.00 0.00 0.00 37 1012.2
20260903214602 87 242 5.2 9.6 0.00 0.00 0.00 38 1012.3
20260903214103 87 207 4.3 9.6 0.00 0.00 0.00 38 1012.5
20260903213600 87 223 4.3 9.6 0.00 0.00 0.00 38 1012.3
20260903213100 87 217 5.2 9.6 0.00 0.00 0.00 36 1012.5
20260903212559 87 229 3.5 7.8 0.00 0.00 0.00 38 1012.3
20260903212329 86 250 2.6 7.8 0.00 0.00 0.00 39 1012.5
20260903211558 86 258 4.3 11.3 0.00 0.00 0.00 38 1012.6
20260903211057 86 209 4.3 11.3 0.00 0.00 0.00 40 1012.6
20260903210558 86 234 3.5 8.7 0.00 0.00 0.00 39 1012.6
20260903210105 85 258 4.3 10.4 0.00 0.00 0.00 39 1012.7
20260903205824 86 240 5.2 10.4 0.00 0.00 0.00 39 1012.7
20260903205047 85 214 5.2 9.6 0.00 0.00 0.00 39 1012.8
20260903204548 85 256 4.3 8.7 0.00 0.00 0.00 41 1012.8
20260903204048 84 221 4.3 8.7 0.00 0.00 0.00 40 1012.9
20260903203549 85 216 4.3 9.6 0.00 0.00 0.00 41 1013.0
20260903203049 84 257 2.6 9.6 0.00 0.00 0.00 41 1013.0
20260903202547 84 246 2.6 7.0 0.00 0.00 0.00 40 1013.1
20260903202047 84 245 3.5 8.7 0.00 0.00 0.00 39 1013.2
20260903201818 84 217 3.5 8.7 0.00 0.00 0.00 38 1013.2
20260903201045 83 218 2.6 6.1 0.00 0.00 0.00 40 1013.2
20260903200546 83 217 2.6 6.1 0.00 0.00 0.00 39 1013.2
20260903200055 83 224 3.5 7.8 0.00 0.00 0.00 39 1013.4
20260903195542 83 225 3.5 7.8 0.00 0.00 0.00 40 1013.6
20260903195314 83 253 3.5 7.8 0.00 0.00 0.00 41 1013.6
20260903194537 83 218 3.5 7.8 0.00 0.00 0.00 40 1013.7
20260903194038 83 266 1.7 6.1 0.00 0.00 0.00 42 1013.7
20260903193538 82 221 1.7 4.3 0.00 0.00 0.00 42 1013.8
20260903193039 81 221 2.6 4.3 0.00 0.00 0.00 43 1013.9
20260903192537 81 221 2.6 6.1 0.00 0.00 0.00 43 1014.0
20260903192036 82 221 2.6 6.1 0.00 0.00 0.00 42 1014.2
20260903191807 81 221 2.6 5.2 0.00 0.00 0.00 43 1014.2
20260903191037 81 208 1.7 5.2 0.00 0.00 0.00 44 1014.3
20260903190806 81 206 1.7 6.1 0.00 0.00 0.00 45 1014.4
20260903190036 80 207 2.6 6.1 0.00 0.00 0.00 45 1014.4
20260903185536 80 208 3.5 6.1 0.00 0.00 0.00 45 1014.5
20260903185308 80 226 2.6 6.1 0.00 0.00 0.00 45 1014.6
20260903184536 80 213 0.9 2.6 0.00 0.00 0.00 46 1014.7
20260903184307 79 213 1.7 7.8 0.00 0.00 0.00 48 1014.8
20260903183536 79 213 2.6 7.8 0.00 0.00 0.00 47 1014.9
20260903183035 79 212 1.7 5.2 0.00 0.00 0.00 45 1015.0
20260903182806 78 213 1.7 5.2 0.00 0.00 0.00 46 1014.9
20260903182036 78 212 1.7 4.3 0.00 0.00 0.00 45 1015.0
20260903181035 77 214 0.9 6.1 0.00 0.00 0.00 50 1015.0
20260903180548 77 215 0.9 6.1 0.00 0.00 0.00 52 1015.0
20260903180306 77 215 2.6 6.1 0.00 0.00 0.00 54 1015.1
20260903175535 76 215 2.6 6.1 0.00 0.00 0.00 53 1015.1
20260903175033 77 216 1.7 5.2 0.00 0.00 0.00 54 1015.2
20260903174532 76 219 1.7 5.2 0.00 0.00 0.00 55 1015.2
20260903174039 75 219 1.7 5.2 0.00 0.00 0.00 56 1015.2
20260903173523 75 219 2.6 4.3 0.00 0.00 0.00 57 1015.3
20260903173024 75 219 2.6 5.2 0.00 0.00 0.00 58 1015.3
20260903172754 74 220 1.7 5.2 0.00 0.00 0.00 59 1015.3
20260903172020 74 221 1.7 5.2 0.00 0.00 0.00 59 1015.4
20260903171520 74 221 2.6 6.1 0.00 0.00 0.00 59 1015.3
20260903171251 74 223 1.7 6.1 0.00 0.00 0.00 59 1015.3
20260903170530 74 223 1.7 4.3 0.00 0.00 0.00 61 1015.3
20260903170248 73 223 2.6 5.2 0.00 0.00 0.00 61 1015.3
20260903165518 73 223 1.7 5.2 0.00 0.00 0.00 61 1015.3